Regional Weather Roundup
Issued by NWS Sioux Falls, SD

Home | Current Version | Previous Version | Graphics & Text | Print | Product List | Glossary Off
Versions: 1 2 3 4 5 6 7 8 9 10 11 12 13 14 15 16 17 18 19 20 21 22 23 24 25 26 27 28 29 30 31 32 33 34 35 36 37 38 39 40 41 42 43 44 45 46 47 48 49 50

000
ASUS43 KFSD 230502
RWRFSD

WEATHER ROUNDUP FOR SE SOUTH DAKOTA/SW MINNESOTA/NW IOWA
NATIONAL WEATHER SERVICE SIOUX FALLS SD
1200 AM CDT THU OCT 23 2014

NOTE: "FAIR" INDICATES FEW OR NO CLOUDS BELOW 12,000 FEET WITH NO
SIGNIFICANT WEATHER AND OR OBSTRUCTIONS TO VISIBILITY.


SDZ038>040-050-052>070-230600-
SOUTHEAST SOUTH DAKOTA

CITY           SKY/WX    TMP DP  RH WIND       PRES   REMARKS
CHAMBERLAIN    CLEAR     44  40  89 SW5       30.00S
HURON          CLEAR     48  46  93 SW7       29.98S
MADISON        FOG       50  50 100 SW6       30.01S VSB<1/4
MITCHELL       CLEAR     50  49  96 SW8       30.01S
SIOUX FALLS    MOCLDY    53  52  96 SW3       30.02S
WINNER         FAIR      52  40  63 SW7       30.02S
YANKTON          N/A     52  48  87 SW3       30.03S VSB 1/4
$$

MNZ071-072-080-081-089-090-097-098-230600-
SOUTHWEST MINNESOTA

CITY           SKY/WX    TMP DP  RH WIND       PRES   REMARKS
FAIRMONT       CLOUDY    55  46  71 S16       30.02F
JACKSON        DRIZZLE   57  55  94 S12       30.02F
LUVERNE        CLOUDY    55  54  94 SW6       30.03R FOG
MARSHALL       CLOUDY    55  52  88 W8        29.98F
MONTEVIDEO     CLOUDY    57  55  94 W5        29.98S
PIPESTONE      CLOUDY    54  54 100 SW7       30.01S FOG
REDWOOD FALLS  LGT RAIN  58  57  97 SW9       29.98S FOG
TRACY          CLOUDY    57  55  94 SW7       30.00S
WINDOM         CLOUDY    57  55  94 S10       30.01S
WORTHINGTON    CLOUDY    57  57 100 SW8       30.02F
$$

IAZ001>003-012>014-020>022-031-032-NEZ013-014-SDZ071-230600-
NORTHWEST IOWA

CITY           SKY/WX    TMP DP  RH WIND       PRES   REMARKS
CHEROKEE       RAIN      58  58 100 S6        30.02F
DENISON        CLOUDY    59  57  94 S13G18    30.03F
ESTHERVILLE    CLOUDY    54  53  97 S13       30.03S
LE MARS        CLOUDY    59  59 100 CALM      30.03S
ORANGE CITY    CLOUDY    59  57  94 S5        30.03S FOG
SHELDON        CLOUDY    57  57 100 S8        30.02S FOG
SIOUX CITY     LGT RAIN  60  59  96 CALM      30.02F FOG
SPENCER        CLOUDY    58  57  97 S10       30.03S
STORM LAKE     CLOUDY    55  55 100 S12       30.04F
$$

ABBREVIATIONS USED IN REMARKS
   TC - TEMPERATURE IN CELSIUS
  WCI - WIND CHILL INDEX
   HX - HEAT INDEX
  VSB - VISIBILITY




USA.gov is the U.S. government's official web portal to all federal, state and local government web resources and services.